Location: Brivio
(45.7333°N, 9.4500°E)
Time: 21:27:40
(UTC+00:00)

N. Korean satellite - Visible Passes

Search period start: 10 December 2019 00:00
Search period end: 20 December 2019 00:00
Orbit: 456 x 506 km, 97.2° (Epoch: 09 December)

Date Brightness Start Highest point End Pass type
(mag) Time Alt. Az. Time Alt. Az. Time Alt. Az.
10 Dec 7.4 05:02:08 10° NNE 05:05:36 50° E 05:08:59 10° S visible
10 Dec 9.4 17:13:25 10° SW 17:16:21 22° W 17:19:17 10° NW visible
11 Dec 8.9 04:37:06 10° NE 04:40:03 24° E 04:42:56 10° SSE visible
11 Dec 7.7 06:10:32 10° NNW 06:13:21 22° WNW 06:16:07 10° WSW visible
11 Dec 8.0 16:47:15 10° S 16:50:48 42° W 16:54:20 10° NNW visible
12 Dec 9.9 04:12:50 10° ENE 04:14:24 12° E 04:15:57 10° ESE visible
12 Dec 6.8 05:44:41 10° N 05:48:04 43° WNW 05:51:22 10° SW visible
12 Dec 6.6 16:21:38 10° SSE 16:25:20 89° WSW 16:29:03 10° NNW visible
13 Dec 6.5 05:19:08 10° NNE 05:22:40 86° ESE 05:26:08 10° SSW visible
13 Dec 9.9 17:31:32 10° SW 17:33:34 14° W 17:35:35 10° WNW visible
14 Dec 7.9 04:53:52 10° NNE 04:57:11 39° E 05:00:26 10° SSE visible
14 Dec 9.0 17:04:47 10° SSW 17:07:56 27° W 17:11:07 10° NW visible
15 Dec 9.3 04:28:59 10° NE 04:31:36 19° E 04:34:10 10° SE visible
15 Dec 7.4 06:02:00 10° N 06:05:01 27° WNW 06:07:59 10° SW visible
15 Dec 7.5 16:38:48 10° S 16:42:25 53° W 16:46:01 10° NNW visible
16 Dec 6.5 05:36:15 10° N 05:39:41 55° WNW 05:43:03 10° SSW visible
16 Dec 6.6 16:13:18 10° SSE 16:16:59 72° ENE 16:20:38 10° N visible
17 Dec 6.8 05:10:46 10° NNE 05:14:16 67° ESE 05:17:40 10° S visible
17 Dec 9.8 17:22:38 10° SW 17:25:07 17° W 17:27:36 10° NW visible
18 Dec 8.4 04:45:36 10° NNE 04:48:44 30° E 04:51:49 10° SSE visible
18 Dec 8.0 06:19:31 10° NNW 06:21:55 18° WNW 06:24:17 10° WSW visible
18 Dec 8.6 16:56:12 10° SSW 16:59:31 32° W 17:02:51 10° NNW visible
19 Dec 9.6 04:20:57 10° NE 04:23:07 16° E 04:25:16 10° SE visible
19 Dec 7.1 05:53:28 10° N 05:56:39 33° WNW 05:59:46 10° SW visible
19 Dec 7.0 16:30:23 10° S 16:34:01 68° WSW 16:37:39 10° NNW visible
